Simultaneous Nadir Overpasses (SNOs) Predictions

Prediction of SNOs between FY3D and TERRA Satellite Orbit:

Table of predicted SNOs for the next 14.0 days since TLE Epoch: 8/8/2020
Index Date (FY3D) Time (FY3D) Lat,Lon (FY3D) SZA (FY3D ) Date (TERRA) Time (TERRA) Lat,Lon (TERRA) SZA (TERRA ) Distance(km) Time Diff (sec)
1 08/10/2020 13:50:30 69.10, -28.48 53.69 08/10/2020 13:51:40 69.09, -28.25 53.68 8.95 70
2 08/10/2020 14:41:10 -68.91, 139.10 126.49 08/10/2020 14:41:11 -68.92, 139.17 126.48 2.88 1
3 08/10/2020 15:31:52 68.72, -53.33 53.33 08/10/2020 15:30:39 68.76, -53.39 53.37 5.15 73
4 08/13/2020 06:06:55 69.25, 87.22 54.66 08/13/2020 06:08:06 69.19, 87.76 54.58 22.39 71
5 08/13/2020 06:57:32 -68.91,-104.98 125.69 08/13/2020 06:57:39 -68.91,-104.97 125.69 0.81 7
6 08/13/2020 07:48:15 68.77, 62.52 54.18 08/13/2020 07:47:07 68.75, 62.47 54.16 3.07 68
7 08/15/2020 22:23:22 69.46,-157.17 55.70 08/15/2020 22:24:32 69.34,-156.17 55.56 41.43 70
8 08/15/2020 23:13:55 -68.90, 10.94 124.86 08/15/2020 23:14:08 -68.90, 10.89 124.87 1.93 13
9 08/16/2020 00:04:38 68.77, 178.43 55.01 08/16/2020 00:03:35 68.78, 178.40 55.03 2.48 63
10 08/18/2020 14:39:48 69.62, -41.48 56.72 08/18/2020 14:40:57 69.53, -40.03 56.61 57.11 69
11 08/18/2020 15:30:19 -68.95, 126.78 123.96 08/18/2020 15:30:36 -68.93, 126.82 123.98 2.86 17
12 08/18/2020 16:21:02 68.81, -65.72 55.92 08/18/2020 16:20:03 68.81, -65.68 55.92 1.46 59
13 08/21/2020 06:56:15 69.82, 74.13 57.81 08/21/2020 06:57:22 69.72, 76.11 57.68 77.20 67
14 08/21/2020 07:46:42 -68.95,-117.30 123.08 08/21/2020 07:47:04 -68.96,-117.27 123.07 1.64 22
15 08/21/2020 08:37:25 68.81, 50.20 56.80 08/21/2020 08:36:32 68.78, 50.16 56.77 3.39 53
